CST,Max TemperatureF,Mean TemperatureF,Min TemperatureF,Max Dew PointF,MeanDew PointF,Min DewpointF,Max Humidity, Mean Humidity, Min Humidity, Max Sea Level PressureIn, Mean Sea Level PressureIn, Min Sea Level PressureIn, Max VisibilityMiles, Mean VisibilityMiles, Min VisibilityMiles, Max Wind SpeedMPH, Mean Wind SpeedMPH, Max Gust SpeedMPH,PrecipitationIn, CloudCover, Events, WindDirDegrees
2012-12-1,82,65,48,63,58,48,100,78,48,30.14,30.09,30.04,10,10,3,16,3,21,0.00,3,,190
2012-12-2,82,71,60,64,61,57,94,74,42,30.18,30.11,30.07,10,10,8,16,5,22,0.00,4,,194
2012-12-3,75,66,57,63,60,55,100,82,65,30.10,30.05,30.00,10,10,5,14,5,17,0.00,4,,189
2012-12-4,75,60,44,57,46,34,100,63,31,30.31,30.20,30.06,10,8,1,13,3,18,0.00,2,,354
2012-12-5,75,55,35,34,31,28,81,48,18,30.32,30.21,30.09,10,10,9,6,1,,0.00,0,,269
2012-12-6,80,56,33,52,42,32,100,67,30,30.08,29.95,29.83,10,9,0,13,2,18,0.00,1,Fog,178
2012-12-7,75,60,44,61,52,41,100,84,61,29.95,29.88,29.82,10,10,3,8,1,,0.00,3,,100
2012-12-8,80,66,51,63,57,48,100,80,45,29.95,29.88,29.83,10,8,3,12,2,16,0.00,4,,203
2012-12-9,80,65,50,63,51,34,100,73,28,30.05,29.90,29.82,10,7,0,17,4,23,0.00,2,Fog,346
2012-12-10,50,39,26,32,15,10,64,39,24,30.23,30.16,30.06,10,10,10,28,12,33,0.00,2,,352
2012-12-11,55,37,19,18,16,14,80,48,21,30.26,30.17,30.11,10,10,10,6,1,,0.08,0,,109
2012-12-12,64,42,21,23,20,14,80,48,19,30.34,30.26,30.19,10,10,10,10,2,,0.00,0,,150
2012-12-13,69,50,32,46,35,19,87,57,39,30.31,30.25,30.18,10,10,10,14,4,20,0.00,3,,153
2012-12-14,66,60,55,63,54,37,100,81,45,30.19,30.05,29.89,10,9,2,13,5,17,0.00,8,Rain,141
2012-12-15,75,65,55,64,47,34,100,62,23,30.02,29.95,29.89,10,10,9,8,2,,0.00,4,,246
2012-12-16,73,58,42,48,39,30,72,48,20,29.92,29.86,29.79,10,10,10,12,3,18,0.00,1,,272
2012-12-17,73,55,37,32,28,21,70,42,15,30.02,29.95,29.89,10,10,10,15,7,23,0.00,0,,283
2012-12-18,87,60,32,48,30,23,75,43,9,29.95,29.88,29.80,10,10,10,16,2,18,0.00,0,,163
2012-12-19,82,68,55,61,55,12,88,59,14,30.00,29.77,29.65,10,9,4,25,8,37,0.00,4,Rain,201
2012-12-20,62,44,26,21,8,-4,45,26,9,30.51,30.38,30.02,10,10,4,25,15,37,0.00,0,Rain,333
2012-12-21,66,42,19,12,8,3,59,32,8,30.55,30.45,30.35,10,10,10,12,1,,0.00,0,,213
2012-12-22,68,48,28,48,33,10,87,54,40,30.39,30.25,30.11,10,10,10,21,4,29,0.00,1,,206
2012-12-23,71,56,41,54,45,37,93,69,31,30.10,30.00,29.92,10,10,10,9,1,,0.00,1,,260
2012-12-24,68,50,32,41,30,25,93,52,21,30.08,29.93,29.78,10,10,10,9,1,,0.00,0,,121
2012-12-25,59,46,32,43,30,18,71,52,38,30.24,29.89,29.60,10,10,9,29,9,39,0.00,5,Thunderstorm,335
2012-12-26,39,32,26,19,17,14,69,57,42,30.32,30.23,30.13,10,10,10,18,9,25,0.00,1,,340
2012-12-27,53,40,26,43,30,19,100,71,41,30.13,29.97,29.85,10,9,1,13,3,18,0.00,3,,124
2012-12-28,50,37,24,45,36,21,100,83,57,30.29,30.04,29.85,10,7,0,18,3,24,0.00,3,Fog,328
2012-12-29,53,40,26,23,19,18,80,52,24,30.49,30.41,30.29,10,10,10,8,3,,0.00,0,,344
2012-12-30,46,37,28,34,24,19,69,55,37,30.45,30.35,30.19,10,10,10,12,4,,0.00,3,Rain,129
2012-12-31,57,50,44,55,50,36,100,97,66,30.20,30.05,29.98,10,4,0,12,2,16,0.00,8,Fog-Rain,124